| time (UTC) | temp F | wind direction | speed MPH | gust MPH | rain 1hr in | rain 24hr in | rain mn in | humidity % | barometer mb |
| 20260508042309 | 43 | 225 | 0.0 | 1.0 | 0.00 | 0.00 | 0.00 | 79 | 1012.1 |
| 20260508035339 | 42 | 292 | 0.0 | 0.0 | 0.00 | 0.00 | 0.00 | 83 | 1011.9 |
| 20260508025338 | 43 | 292 | 0.0 | 0.0 | 0.00 | 0.00 | 0.00 | 78 | 1012.0 |
| 20260508022337 | 44 | 292 | 0.0 | 0.0 | 0.00 | 0.00 | 0.00 | 74 | 1012.0 |
| 20260508012307 | 47 | 292 | 0.0 | 0.0 | 0.00 | 0.00 | 0.00 | 65 | 1011.7 |
| 20260508005336 | 50 | 292 | 0.0 | 0.0 | 0.00 | 0.00 | 0.00 | 57 | 1011.8 |
| 20260508002336 | 51 | 292 | 0.0 | 5.0 | 0.00 | 0.00 | 0.00 | 52 | 1011.5 |
| 20260507235335 | 52 | 282 | 0.0 | 5.0 | 0.00 | 0.00 | 0.00 | 49 | 1011.3 |
| 20260507232335 | 53 | 311 | 0.0 | 5.0 | 0.00 | 0.00 | 0.00 | 50 | 1011.2 |
| 20260507225334 | 53 | 192 | 0.0 | 9.0 | 0.00 | 0.00 | 0.00 | 46 | 1011.3 |
| 20260507222334 | 54 | 358 | 1.0 | 10.0 | 0.00 | 0.00 | 0.00 | 45 | 1011.4 |
| 20260507215334 | 54 | 323 | 5.0 | 9.0 | 0.00 | 0.00 | 0.00 | 52 | 1011.1 |
| 20260507212334 | 53 | 263 | 0.0 | 9.0 | 0.00 | 0.00 | 0.00 | 56 | 1010.8 |
| 20260507195333 | 54 | 340 | 4.0 | 8.0 | 0.00 | 0.00 | 0.00 | 55 | 1010.6 |
| 20260507192331 | 54 | 331 | 0.0 | 8.0 | 0.00 | 0.00 | 0.00 | 54 | 1010.9 |
| 20260507185331 | 54 | 342 | 7.0 | 9.0 | 0.00 | 0.00 | 0.00 | 50 | 1010.9 |
| 20260507172330 | 55 | 293 | 4.0 | 8.0 | 0.00 | 0.00 | 0.00 | 52 | 1011.2 |
| 20260507165330 | 56 | 15 | 2.0 | 7.0 | 0.00 | 0.00 | 0.00 | 52 | 1011.3 |
| 20260507162329 | 55 | 328 | 4.0 | 8.0 | 0.00 | 0.00 | 0.00 | 53 | 1011.3 |
| 20260507155328 | 54 | 59 | 0.0 | 5.0 | 0.00 | 0.00 | 0.00 | 56 | 1011.4 |
| 20260507152327 | 54 | 82 | 0.0 | 6.0 | 0.00 | 0.00 | 0.00 | 55 | 1011.4 |
| 20260507132326 | 50 | 139 | 0.0 | 3.0 | 0.00 | 0.00 | 0.00 | 73 | 1012.1 |
| 20260507122325 | 45 | 82 | 0.0 | 4.0 | 0.00 | 0.00 | 0.00 | 86 | 1011.9 |
| 20260507115325 | 44 | 53 | 0.0 | 0.0 | 0.00 | 0.00 | 0.00 | 88 | 1011.6 |
| 20260507112324 | 43 | 53 | 0.0 | 0.0 | 0.00 | 0.00 | 0.00 | 88 | 1011.6 |
| 20260507105323 | 42 | 53 | 0.0 | 0.0 | 0.00 | 0.00 | 0.00 | 87 | 1011.4 |
| 20260507102323 | 42 | 53 | 0.0 | 0.0 | 0.00 | 0.00 | 0.00 | 88 | 1011.2 |
| 20260507095323 | 42 | 53 | 0.0 | 0.0 | 0.00 | 0.00 | 0.00 | 91 | 1011.2 |
| 20260507092322 | 42 | 53 | 0.0 | 0.0 | 0.00 | 0.03 | 0.00 | 91 | 1011.3 |
| 20260507085322 | 42 | 53 | 0.0 | 0.0 | 0.00 | 0.05 | 0.00 | 91 | 1011.4 |
| 20260507075321 | 41 | 53 | 0.0 | 0.0 | 0.00 | 0.13 | 0.00 | 91 | 1011.5 |
| 20260507072321 | 41 | 53 | 0.0 | 0.0 | 0.00 | 0.16 | 0.00 | 90 | 1011.6 |
| 20260507065321 | 41 | 53 | 0.0 | 0.0 | 0.00 | 0.17 | 0.00 | 90 | 1011.8 |
| 20260507062321 | 41 | 53 | 0.0 | 0.0 | 0.00 | 0.18 | 0.00 | 89 | 1012.0 |
| 20260507055319 | 42 | 53 | 0.0 | 0.0 | 0.00 | 0.21 | 0.00 | 88 | 1012.3 |
| 20260507052319 | 44 | 53 | 0.0 | 0.0 | 0.00 | 0.26 | 0.00 | 85 | 1012.5 |
| 20260507045318 | 44 | 53 | 0.0 | 0.0 | 0.00 | 0.28 | 0.00 | 86 | 1012.7 |